Weather History for Harrison, AR

Change the Weather History Date:

Thursday, February 21, 2013

  Actual Average Record
Temperature  
Mean Temperature 31 °F 42 °F  
Max Temperature 35 °F 52 °F 76 °F (1897)
Min Temperature 26 °F 32 °F 9 °F (1963)
Degree Days  
Heating Degree Days 34 23  
Month to date heating degree days 502 532  
Since 1 July heating degree days 2698 3018  
Cooling Degree Days 0 0  
Month to date cooling degree days 0 0  
Year to date cooling degree days 1 0  
Moisture  
Dew Point 26 °F    
Average Humidity 75    
Maximum Humidity 100    
Minimum Humidity 50    
Precipitation  
Precipitation 0.52 in 0.10 in 1.30 in (1951)
Month to date precipitation 2.30 1.92  
Year to date precipitation 5.67 4.48  
Snow  
Snow T in 0.10 in 6.00 in (1912)
Month to date snowfall 1.5 2.5  
Since 1 July snowfall 1.8 8.5  
Snow Depth T in    
Sea Level Pressure  
Sea Level Pressure 29.88 in    
Wind  
Wind Speed 12 mph (ESE)    
Max Wind Speed 26 mph    
Max Gust Speed 37 mph    
Visibility 5 miles    
Events Rain , Snow , Thunderstorm    
T = Trace of Precipitation, MM = Missing Value Source: NWS Daily Summary

Daily Weather History Graph

Daily Weather History Graph

Search for Another Location

Airport:

Trip Planner

Search our weather history database for the weather conditions in past years. The results will help you decide how hot, cold, wet, or windy it might be!

Date:

Astronomy

Feb. 21, 2013 Rise Set
Actual Time 6:52 AM CST 6:00 PM CST
Civil Twilight 6:26 AM CST 6:26 PM CST
Nautical Twilight 5:56 AM CST 6:56 PM CST
Astronomical Twilight 5:27 AM CST 7:25 PM CST
Moon 2:19 PM CST (2/21) 3:53 AM CST (2/21)
Length of Visible Light 11h 59m
Length of Day
11h 07m
Waxing Gibbous, 84% of the Moon is Illuminated
Feb 21
Waxing Gibbous
Feb 25
Full
Mar 4
Last Quarter
Mar 11
New
Mar 19
First Quarter

Hourly Weather History & Observations

Time (CST) Temp. Windchill Dew Point Humidity Pressure Visibility Wind Dir Wind Speed Gust Speed Precip Events Conditions
12:06 AM 28.4 °F 18.0 °F 15.8 °F 59% 30.10 in 10.0 mi East 12.7 mph - 0.00 in Rain Light Freezing Rain
12:24 AM 28.4 °F 18.5 °F 15.8 °F 59% 30.10 in 10.0 mi ESE 11.5 mph - 0.00 in   Overcast
12:53 AM 28.0 °F 18.1 °F 16.0 °F 61% 30.15 in 10.0 mi ESE 11.5 mph - 0.00 in   Overcast
1:16 AM 26.6 °F 15.7 °F 15.8 °F 64% 30.11 in 10.0 mi ESE 12.7 mph - 0.00 in   Overcast
1:38 AM 26.6 °F 14.7 °F 19.4 °F 74% 30.10 in 9.0 mi ESE 15.0 mph 20.7 mph 0.00 in Rain Light Freezing Rain
1:53 AM 26.1 °F 15.6 °F 19.9 °F 78% 30.12 in 10.0 mi ESE 11.5 mph - 0.00 in Rain Light Freezing Rain
2:14 AM 26.6 °F 13.8 °F 21.2 °F 80% 30.06 in 10.0 mi ESE 17.3 mph 23.0 mph 0.00 in   Overcast
2:53 AM 26.1 °F 13.6 °F 21.0 °F 81% 30.10 in 10.0 mi ESE 16.1 mph - 0.00 in   Overcast
3:13 AM 26.6 °F 16.2 °F 23.0 °F 86% 30.04 in 9.0 mi ESE 11.5 mph 24.2 mph 0.01 in Rain Light Freezing Rain
3:40 AM 26.6 °F 13.1 °F 23.0 °F 86% 30.02 in 7.0 mi ESE 19.6 mph 23.0 mph 0.06 in Rain Light Freezing Rain
3:50 AM 26.6 °F 15.2 °F 23.0 °F 86% 30.01 in 10.0 mi ESE 13.8 mph 21.9 mph 0.06 in Rain Light Freezing Rain
3:53 AM 26.1 °F 14.0 °F 23.0 °F 88% 30.05 in 10.0 mi ESE 15.0 mph 21.9 mph 0.06 in Rain Light Freezing Rain
4:05 AM 26.6 °F 14.3 °F 23.0 °F 86% 30.00 in 10.0 mi ESE 16.1 mph 21.9 mph 0.00 in   Overcast
4:53 AM 26.1 °F 13.6 °F 23.0 °F 88% 30.01 in 10.0 mi ESE 16.1 mph 28.8 mph 0.01 in   Overcast
5:45 AM 26.6 °F 13.1 °F 23.0 °F 86% 29.92 in 6.0 mi ESE 19.6 mph 26.5 mph 0.00 in Rain Light Freezing Rain
5:53 AM 26.1 °F 12.0 °F 23.0 °F 88% 29.95 in 9.0 mi ESE 20.7 mph 27.6 mph 0.00 in Rain Light Freezing Rain
6:11 AM 26.6 °F 13.1 °F 24.8 °F 93% 29.93 in 10.0 mi ESE 19.6 mph 26.5 mph 0.00 in Rain Light Freezing Rain
6:19 AM 26.6 °F 16.8 °F 23.0 °F 86% 29.99 in 10.0 mi SSE 10.4 mph 27.6 mph 0.00 in Thunderstorm Overcast
6:29 AM 28.4 °F 15.1 °F 26.6 °F 93% 29.92 in 3.0 mi ESE 20.7 mph 27.6 mph 0.06 in Rain , Thunderstorm Light Freezing Rain
6:35 AM 28.4 °F 15.1 °F 26.6 °F 93% 29.92 in 3.0 mi ESE 20.7 mph 27.6 mph 0.07 in Rain Light Freezing Rain
6:53 AM 28.0 °F 15.7 °F 26.1 °F 92% 29.95 in 5.0 mi ESE 17.3 mph 29.9 mph 0.08 in Rain Light Freezing Rain
7:20 AM 26.6 °F 13.8 °F 24.8 °F 93% 29.91 in 10.0 mi ESE 17.3 mph 24.2 mph 0.00 in   Overcast
7:53 AM 27.0 °F 13.5 °F 25.0 °F 92% 29.94 in 9.0 mi ESE 19.6 mph 24.2 mph 0.00 in   Overcast
8:53 AM 27.0 °F 13.9 °F 25.0 °F 92% 29.87 in 8.0 mi ESE 18.4 mph - N/A   Overcast
9:21 AM 28.4 °F 14.4 °F 26.6 °F 93% 29.85 in 4.0 mi ESE 23.0 mph 27.6 mph 0.03 in Rain Light Freezing Rain
9:27 AM 28.4 °F 15.1 °F 26.6 °F 93% 29.83 in 2.5 mi ESE 20.7 mph 28.8 mph 0.05 in Rain Light Freezing Rain
9:30 AM 28.4 °F 14.7 °F 26.6 °F 93% 29.84 in 4.0 mi ESE 21.9 mph 28.8 mph 0.05 in Rain , Thunderstorm Light Freezing Rain
9:34 AM 28.4 °F 14.4 °F 26.6 °F 93% 29.80 in 1.5 mi ESE 23.0 mph 32.2 mph 0.06 in Rain , Thunderstorm Light Freezing Rain
9:46 AM 28.4 °F 15.4 °F 26.6 °F 93% 29.80 in 3.0 mi ESE 19.6 mph 33.4 mph 0.08 in Rain , Thunderstorm Light Freezing Rain
9:53 AM 28.0 °F 13.3 °F 25.0 °F 88% 29.84 in 7.0 mi ESE 25.3 mph 36.8 mph 0.08 in Rain , Thunderstorm Light Freezing Rain
10:06 AM 28.4 °F 15.4 °F 26.6 °F 93% 29.82 in 7.0 mi SE 19.6 mph 26.5 mph 0.01 in Rain Light Freezing Rain
10:18 AM 28.4 °F 14.4 °F 26.6 °F 93% 29.78 in 2.0 mi SE 23.0 mph 34.5 mph 0.04 in Rain Light Freezing Rain
10:23 AM 28.4 °F 16.2 °F 26.6 °F 93% 29.78 in 3.0 mi SE 17.3 mph 31.1 mph 0.04 in Rain Light Freezing Rain
10:40 AM 28.4 °F 23.3 °F 28.4 °F 100% 29.86 in 2.5 mi Variable 4.6 mph 23.0 mph 0.10 in Rain Light Freezing Rain
10:48 AM 28.4 °F 23.3 °F 26.6 °F 93% 29.87 in 1.2 mi ESE 4.6 mph - 0.15 in Rain Light Freezing Rain
10:53 AM 28.9 °F 25.2 °F 27.0 °F 92% 29.92 in 1.8 mi Variable 3.5 mph - 0.16 in Rain , Thunderstorm Light Freezing Rain
11:14 AM 28.4 °F 22.2 °F 26.6 °F 93% 29.87 in 1.8 mi East 5.8 mph - 0.11 in Rain , Thunderstorm Light Freezing Rain
11:17 AM 28.4 °F 23.3 °F 26.6 °F 93% 29.87 in 2.0 mi East 4.6 mph - 0.11 in   Overcast
11:27 AM 28.4 °F - 26.6 °F 93% 29.89 in 2.0 mi Calm Calm - 0.12 in   Overcast
11:37 AM 28.4 °F 20.4 °F 26.6 °F 93% 29.87 in 1.5 mi East 8.1 mph - 0.12 in   Overcast
11:51 AM 28.4 °F 22.2 °F 28.4 °F 100% 29.86 in 0.8 mi ENE 5.8 mph - 0.12 in Snow Light Snow
11:53 AM 28.9 °F 23.9 °F 28.0 °F 96% 29.90 in 0.8 mi ENE 4.6 mph - 0.12 in Snow Light Snow
12:02 PM 28.4 °F 21.2 °F 28.4 °F 100% 29.86 in 2.0 mi ENE 6.9 mph - 0.00 in   Overcast
12:10 PM 28.4 °F 19.7 °F 28.4 °F 100% 29.84 in 5.0 mi East 9.2 mph - 0.00 in   Overcast
12:26 PM 28.4 °F 19.1 °F 28.4 °F 100% 29.81 in 3.0 mi East 10.4 mph - 0.00 in   Overcast
12:34 PM 30.2 °F 22.6 °F 28.4 °F 93% 29.80 in 3.0 mi East 8.1 mph - 0.01 in Rain Light Freezing Rain
12:53 PM 30.0 °F 20.5 °F 28.0 °F 92% 29.84 in 3.0 mi East 11.5 mph - 0.01 in   Overcast
1:02 PM 30.2 °F 20.2 °F 28.4 °F 93% 29.80 in 3.0 mi East 12.7 mph - 0.00 in Rain Light Freezing Rain
1:18 PM 30.2 °F 20.8 °F 28.4 °F 93% 29.78 in 2.0 mi East 11.5 mph - 0.00 in Rain Light Freezing Rain
1:53 PM 30.0 °F 22.4 °F 28.9 °F 96% 29.81 in 2.5 mi East 8.1 mph - 0.00 in Rain Light Freezing Rain
2:22 PM 30.2 °F 20.2 °F 28.4 °F 93% 29.74 in 1.8 mi ESE 12.7 mph 20.7 mph 0.00 in Rain Light Freezing Rain
2:39 PM 30.2 °F 19.3 °F 28.4 °F 93% 29.74 in 2.5 mi ESE 15.0 mph 19.6 mph 0.00 in Rain Light Freezing Rain
2:48 PM 30.2 °F 19.3 °F 28.4 °F 93% 29.74 in 3.0 mi ESE 15.0 mph 20.7 mph 0.00 in Rain Light Freezing Rain
2:53 PM 30.0 °F 20.5 °F 28.0 °F 92% 29.77 in 3.0 mi ESE 11.5 mph 20.7 mph 0.00 in Rain Light Freezing Rain
3:09 PM 30.2 °F 21.3 °F 28.4 °F 93% 29.74 in 2.5 mi ESE 10.4 mph - 0.00 in Rain Light Freezing Rain
3:37 PM 30.2 °F 21.3 °F 28.4 °F 93% 29.74 in 3.0 mi ESE 10.4 mph - 0.00 in Rain Light Freezing Rain
3:53 PM 30.0 °F 21.7 °F 28.9 °F 96% 29.78 in 5.0 mi SE 9.2 mph - 0.00 in Rain Light Freezing Rain
4:06 PM 30.2 °F 20.8 °F 28.4 °F 93% 29.73 in 5.0 mi SE 11.5 mph - 0.00 in   Overcast
4:21 PM 30.2 °F 20.8 °F 30.2 °F 100% 29.74 in 2.0 mi SE 11.5 mph - 0.00 in   Overcast
4:53 PM 30.9 °F 20.7 °F 30.0 °F 96% 29.77 in 2.0 mi SE 13.8 mph - 0.00 in   Overcast
5:53 PM 30.9 °F 22.2 °F 30.0 °F 96% 29.79 in 2.5 mi SE 10.4 mph - N/A   Overcast
6:03 PM 30.2 °F 20.2 °F 30.2 °F 100% 29.77 in 3.0 mi SSE 12.7 mph - N/A   Overcast
6:53 PM 30.9 °F 22.2 °F 30.0 °F 96% 29.82 in 4.0 mi SE 10.4 mph - N/A   Overcast
7:53 PM 30.9 °F 22.8 °F 30.0 °F 96% 29.83 in 3.0 mi SE 9.2 mph - N/A   Overcast
8:38 PM 30.2 °F 22.6 °F 30.2 °F 100% 29.79 in 2.0 mi SE 8.1 mph - N/A   Overcast
8:45 PM 30.2 °F 23.4 °F 30.2 °F 100% 29.79 in 1.2 mi SE 6.9 mph - N/A   Overcast
8:53 PM 30.2 °F 22.6 °F 30.2 °F 100% 29.79 in 0.8 mi SE 8.1 mph - N/A   Mist
9:05 PM 30.2 °F 21.9 °F 30.2 °F 100% 29.80 in 1.0 mi SSE 9.2 mph - N/A   Mist
9:53 PM 30.9 °F 23.5 °F 30.9 °F 100% 29.85 in 1.2 mi SSE 8.1 mph - N/A   Overcast
10:03 PM 30.2 °F 23.4 °F 30.2 °F 100% 29.81 in 3.0 mi SSE 6.9 mph - N/A   Overcast
10:43 PM 32.0 °F 27.5 °F 30.2 °F 93% 29.82 in 2.5 mi SSE 4.6 mph - N/A   Overcast
10:51 PM 32.0 °F 27.5 °F 30.2 °F 93% 29.81 in 4.0 mi SE 4.6 mph - N/A   Overcast
10:53 PM 32.0 °F 28.7 °F 30.9 °F 96% 29.84 in 4.0 mi SE 3.5 mph - N/A   Overcast
11:48 PM 33.8 °F 29.6 °F 32.0 °F 93% 29.81 in 10.0 mi West 4.6 mph - N/A   Overcast
11:53 PM 35.6 °F 30.7 °F 32.0 °F 87% 29.82 in 10.0 mi WSW 5.8 mph - N/A   Overcast